SCP
0 0 0 0 0 0 0 0 0 0 0 0 0 0 -0 -0 -0 0 0 0 -0 -0 -0 0 -0 -0 -0 -0 0 0 0 0 0 0 0 0 0 0 -0 -0 0 -0 0
-0 -0 0 0 0 0 0 0 0 0 0 0 0 0 -0 -0 -0 0 0 0 -0 -0 0 0 -0 -0 -0 0 0 -0 0 -0 -0 -0 -0 0 0 0 0 0 0 0 0
-0 -0 -0 0 0 0 0 0 0 0 0 0 0 -0 -0 -0 -0 -0 0 0 0 0 -0 -0 -0 -0 0 0 0 0 0 -0 0 0 0 0 0 0 -0 0 0 -0 0
0 -0 -0 0 0 -0 0 0 0 0 0 0 0 -0 -0 -0 -0 -0 -0 0 0 0 0 0 0 -0 -0 0 -0 0 0 0 0 0 0 0 0 0 0 -0 0 -0 0
-0 0 -0 -0 -0 -0 0 0 0 0 0 0 0 -0 -0 -0 -0 -0 -0 0 0 0 0 0 0 0 0 0 0 0 0 0 0 0 0 0 -0 0 -0 -0 -0 -0 0
-0 -0 0 -0 0 -0 -0 0 0 0 0 0 0 -0 -0 -0 -0 -0 -0 -0 0 0 0 0 0 0 0 0 0 0 0 0 0 0 0 0 -0 -0 0 0 0 -0 0
0 -0 0 0 0 -0 -0 0 0 -0 0 0 0 0 -0 -0 -0 -0 -0 -0 -0 0 0 -0 0 0 0 0 0 0 0 0 0 0 0 -0 -0 -0 0 -0 0 0 0
0 0 0 0 0 -0 -0 0 0 0 0 0 0 0 -0 -0 -0 -0 -0 -0 -0 -0 -0 -0 0 0 0 0 0 0 0 0 0 0 0 -0 -0 0 0 0 0 0 0
0 0 0 0 0 0 0 0 0 0 0 0 0 0 -0 -0 -0 -0 -0 -0 -0 -0 -0 0 0 0 0 0 0 0 0 0 0 -0 0 0 -0 0 0 0 0 0 0
0 0 0 0 0 0 0 0 0 0 0 0 0 0 -0 -0 -0 -0 -0 -0 -0 -0 -0 0 0 0 0 0 -0 -0 -0 -0 -0 0 0 -0 0 0 0 0 0 0 0
0 0 0 0 0 0 0 0 0 0 0 0 -0 0 0 -0 -0 -0 0 -0 -0 -0 -0 0 0 0 -0 0 0 0 -0 0 -0 0 -0 -0 0 -0 0 0 0 0 -0
0 0 0 0 -0 0 0 0 0 0 0 0 0 0 0 0 -0 0 0 -0 -0 -0 -0 -0 -0 0 -0 0 0 -0 0 -0 0 0 -0 -0 -0 -0 -0 -0 -0 0 -0
0 0 0 0 0 0 0 0 0 0 0 0 0 0 0 -0 0 -0 -0 -0 0 -0 0 0 -0 -0 0 0 0 -0 -0 0 -0 -0 -0 -0 -0 -0 -0 0 0 0 0
0 0 0 0 0 0 0 0 0 0 0 0 0 0 -0 0 -0 -0 -0 -0 -0 -0 -0 -0 -0 0 0 -0 -0 -0 -0 0 0 0 -0 -0 -0 0 0 0 0 0 0
0 0 -0 0 0 0 0 0 0 0 0 0 0 0 0 0 -0 -0 -0 -0 -0 -0 0 -0 -0 0 0 0 0 0 -0 0 0 0 0 -0 0 0 0 0 0 0 0
-0 -0 -0 -0 -0 -0 0 0 0 0 0 0 0 -0 -0 0 0 0 0 -0 0 0 -0 -0 0 0 0 0 0 0 -0 -0 0 0 0 0 0 0 0 0 0 0 0
0 -0 0 -0 -0 -0 -0 -0 -0 -0 -0 -0 -0 -0 -0 -0 -0 0 0 0 -0 -0 -0 -0 -0 -0 -0 0 0 -0 -0 -0 0 0 0 0 0 0 0 0 0 -0 -0
0 0 -0 -0 -0 -0 -0 -0 -0 0 0 -0 -0 -0 -0 -0 -0 -0 -0 0 0 -0 0 0 0 0 -0 -0 0 0 0 0 0 0 0 0 0 0 0 0 0 -0 0
0 0 -0 -0 -0 -0 -0 -0 0 0 0 0 0 -0 -0 -0 -0 -0 0 0 0 0 0 0 0 0 0 0 0 0 0 0 0 0 0 0 0 0 0 0 0 -0 0
-0 -0 -0 -0 -0 -0 0 -0 -0 -0 -0 -0 0 -0 -0 -0 -0 0 0 0 -0 -0 0 0 0 0 0 0 0 0 0 0 0 0 -0 0 0 0 0 0 0 -0 0
-0 -0 -0 -0 -0 0 0 0 0 -0 -0 0 -0 0 0 0 0 0 0 0 -0 -0 -0 -0 -0 -0 -0 0 0 0 -0 -0 -0 -0 0 0 -0 -0 -0 -0 0 0 0
-0 -0 -0 -0 -0 -0 0 -0 -0 -0 -0 0 0 0 -0 0 0 0 0 0 0 -0 -0 -0 -0 -0 -0 -0 0 -0 -0 -0 0 0 0 0 -0 -0 -0 -0 -0 -0 -0
-0 -0 -0 -0 -0 -0 0 -0 0 0 0 0 0 0 0 0 0 0 -0 -0 0 0 -0 -0 0 -0 -0 -0 0 -0 -0 0 -0 0 0 0 0 0 0 0 -0 -0 -0
-0 -0 -0 -0 -0 -0 -0 -0 -0 0 0 0 0 0 0 0 0 0 0 0 0 0 0 0 0 0 0 0 0 -0 -0 0 0 -0 0 0 0 0 0 0 0 0 -0
-0 -0 -0 -0 -0 -0 -0 -0 -0 -0 0 0 0 0 0 0 0 -0 -0 0 0 0 0 0 0 0 0 0 -0 0 -0 -0 -0 -0 -0 0 0 0 0 0 0 0 -0
-0 -0 -0 -0 -0 -0 -0 -0 -0 -0 0 0 0 0 0 0 0 -0 0 0 0 0 0 -0 0 -0 -0 0 0 0 -0 -0 -0 -0 -0 0 0 0 0 0 0 0 0
Wind_Speed_500mb
28 28 31 26 25 26 27 29 29 27 26 24 25 25 25 25 23 22 24 27 28 31 35 41 44 47 49 49 49 50 47 45 45 45 46 44 42 44 46 44 41 42 47
36 29 31 26 22 23 24 24 24 24 22 24 25 26 25 26 23 22 26 29 33 35 36 41 43 45 48 48 46 46 43 42 41 42 41 41 39 36 40 41 40 43 43
35 30 27 25 21 22 23 22 21 20 21 25 25 26 25 27 27 24 26 31 35 35 38 40 40 42 44 44 42 40 40 39 40 45 44 32 35 37 36 36 35 38 34
33 29 23 25 23 22 22 22 20 20 19 19 22 25 24 24 26 26 28 31 33 32 38 39 38 37 39 39 38 36 36 37 42 44 31 30 29 32 32 30 30 34 32
32 30 27 25 23 24 22 22 20 18 19 19 19 22 25 23 24 25 26 29 32 29 32 34 36 34 34 34 34 33 34 33 37 31 28 27 24 29 28 27 27 31 30
34 28 30 26 21 22 19 20 20 17 17 16 19 22 25 25 25 25 24 26 29 30 27 30 31 33 31 29 29 30 29 30 34 24 24 27 22 24 23 23 21 23 22
37 28 27 25 20 21 19 17 19 19 13 15 16 26 28 28 26 25 24 23 25 30 24 27 29 30 31 28 27 25 23 29 18 22 22 17 21 21 19 20 17 18 17
33 28 26 26 19 19 19 17 15 17 16 14 13 26 31 31 27 24 25 20 23 28 27 29 29 24 20 19 22 22 22 28 19 20 21 16 20 17 17 16 15 15 15
33 28 27 20 20 21 20 14 14 14 17 16 14 28 33 31 29 25 24 21 21 29 27 26 21 20 19 17 19 19 17 28 19 16 16 14 18 15 12 12 9 10 11
31 29 28 25 18 17 16 12 14 15 16 19 22 30 32 32 28 27 26 23 22 28 25 24 21 20 18 21 20 18 19 24 15 18 16 11 14 13 12 10 11 11 12
31 27 25 25 20 20 13 11 12 14 15 20 20 26 31 24 24 24 22 22 20 28 25 24 22 22 23 21 19 19 27 11 14 14 9 11 12 13 13 11 9 10 10
35 31 27 24 21 19 17 11 13 13 12 19 16 18 25 32 25 21 22 17 19 29 28 23 19 18 22 10 13 18 13 10 12 11 6 8 9 9 8 8 6 7 7
37 32 31 27 26 18 16 14 10 14 11 10 18 18 21 21 31 20 18 16 14 25 18 18 14 11 12 12 12 11 12 12 5 5 3 5 6 5 6 6 6 8 7
36 33 29 29 25 23 17 15 14 16 13 10 12 19 20 21 21 24 19 20 18 17 21 19 14 14 11 8 11 9 9 11 7 5 9 4 3 2 2 4 5 5 6
34 33 30 28 29 24 24 19 16 16 13 12 13 16 18 21 22 22 23 22 21 20 18 18 17 13 12 9 8 9 9 6 5 3 3 11 3 0 1 4 6 5 8
36 34 31 29 27 25 24 22 18 15 16 14 13 15 19 26 23 24 25 25 24 23 20 18 17 15 13 14 13 11 11 9 9 7 5 10 9 9 10 8 6 7 10
37 36 36 33 31 29 27 25 20 17 13 14 13 13 16 18 24 25 23 25 24 24 24 21 19 17 15 15 17 16 15 16 14 16 11 11 17 17 17 18 11 14 17
35 37 37 34 35 34 28 27 21 18 17 15 15 16 15 15 18 23 23 22 23 24 22 22 21 21 20 21 20 19 19 20 20 20 18 17 15 18 25 24 24 26 28
38 36 38 39 38 34 32 30 24 19 18 17 16 17 16 16 18 18 22 23 25 20 23 23 23 23 22 23 23 23 21 19 19 22 30 30 32 29 29 35 33 36 34
41 39 38 41 39 36 29 31 24 21 19 19 22 22 21 17 19 17 17 22 21 19 22 20 21 24 24 21 19 23 29 29 29 34 36 39 41 37 38 37 37 42 32
44 43 43 43 42 38 35 31 29 27 23 20 21 21 20 18 15 18 16 19 20 20 22 19 18 18 17 20 20 19 19 22 26 22 24 25 25 29 32 37 34 32 42
48 46 45 46 46 47 34 30 27 25 24 26 25 22 20 19 18 16 19 17 18 21 16 15 18 21 12 15 14 12 6 5 6 5 10 15 18 21 26 28 26 28 32
52 50 48 48 45 46 38 30 26 23 25 26 20 20 19 20 19 15 16 19 21 19 16 13 12 15 14 10 8 6 4 4 7 5 1 1 7 9 12 18 22 24 26
57 50 48 49 49 46 46 35 33 26 25 22 20 15 15 13 11 18 13 14 15 18 15 17 14 15 12 10 1 7 3 2 3 2 2 4 4 1 8 11 14 17 18
58 52 50 51 51 49 48 44 36 30 24 19 22 22 15 15 13 13 13 13 16 18 13 18 18 17 14 10 7 6 6 2 3 1 3 7 8 3 3 7 10 11 14
59 56 51 52 53 52 50 48 47 34 29 24 21 21 19 15 14 18 18 17 17 16 17 15 20 20 16 18 16 13 8 5 4 7 8 9 9 4 9 8 8 10 13
Wind_Direction_500mb
144 145 134 121 123 126 124 130 134 140 132 119 117 113 110 108 100 96 104 112 109 110 106 104 104 102 102 106 109 113 107 110 105 102 102 104 104 104 99 94 95 106 110
143 141 133 131 135 128 129 131 137 141 137 129 123 116 110 108 108 99 104 109 112 111 110 110 107 106 105 106 108 111 111 109 107 103 100 103 107 109 112 116 116 107 110
141 142 133 132 130 127 126 129 136 143 139 134 129 122 116 111 109 107 109 105 110 111 112 111 109 108 108 108 109 109 108 109 110 102 92 101 103 102 105 113 111 110 116
139 135 137 130 125 119 123 127 126 135 141 144 143 138 130 119 113 116 111 112 110 111 122 114 112 110 108 107 107 111 110 111 106 87 99 101 104 104 101 99 102 109 110
139 136 150 131 126 120 112 114 126 131 136 139 143 147 144 137 121 118 124 118 118 117 113 117 118 108 108 111 114 113 114 110 99 100 108 104 105 106 105 100 97 109 109
139 141 138 136 131 123 120 117 110 130 143 141 153 152 148 146 135 128 121 127 124 120 123 127 123 118 110 109 109 113 113 105 91 102 102 113 127 114 115 115 115 112 119
142 150 141 139 132 128 127 122 123 120 127 144 151 162 154 150 145 139 129 130 137 130 133 126 122 117 113 104 103 108 113 108 109 110 110 116 116 110 116 114 122 124 122
144 144 149 145 140 133 125 116 117 127 123 139 142 162 157 153 146 141 134 127 139 135 127 125 117 113 111 108 106 106 110 106 99 115 113 125 115 114 114 116 114 115 125
150 153 149 147 150 140 123 128 119 124 125 123 122 154 155 155 149 143 141 131 132 132 140 128 116 114 110 106 109 104 110 120 112 107 99 97 116 120 117 123 113 120 130
158 160 156 156 155 141 125 141 124 125 116 120 118 139 151 152 150 150 147 146 135 145 146 135 118 120 109 117 110 104 100 103 122 103 96 151 133 127 113 129 121 127 137
165 166 166 159 165 158 147 152 128 125 127 117 118 133 131 146 144 137 161 156 149 160 161 149 131 120 106 115 106 103 88 112 97 110 118 123 119 113 119 133 136 126 117
170 172 172 169 172 166 156 166 157 143 122 123 141 134 140 150 161 158 159 160 161 164 168 160 144 123 94 100 85 76 99 117 96 103 170 111 111 123 134 134 131 136 145
175 178 177 178 179 170 169 167 171 152 146 148 150 142 159 163 159 154 155 150 158 161 162 163 153 122 154 133 130 134 137 110 112 96 157 82 118 144 161 153 178 184 188
180 183 180 186 183 176 179 167 179 167 158 165 159 161 168 155 164 171 169 170 170 172 184 179 190 190 168 155 152 158 136 137 144 151 275 16 84 159 195 195 214 220 228
185 186 188 192 189 183 180 176 175 167 163 169 172 176 177 175 177 177 181 179 179 187 192 192 195 197 209 194 201 184 173 178 187 176 254 274 244 250 251 248 240 252 256
187 189 190 191 197 190 182 181 183 179 175 176 181 200 185 179 185 189 188 189 191 192 192 198 207 212 216 221 232 234 230 232 257 245 242 279 275 270 250 234 216 205 249
192 193 191 190 195 187 185 181 186 187 186 186 190 202 197 197 195 187 193 195 198 203 202 206 214 221 223 235 242 241 246 253 251 259 262 243 278 275 264 240 225 224 245
190 194 191 191 191 188 190 189 193 196 197 204 210 211 214 206 204 195 192 200 209 203 212 216 220 228 234 239 244 243 254 251 255 255 256 246 250 250 269 244 214 240 240
191 193 192 192 191 195 196 198 201 208 212 217 212 213 216 210 209 201 196 197 205 202 211 220 227 224 233 237 241 252 245 251 256 251 259 261 262 255 257 259 249 231 237
197 195 191 196 194 198 204 210 214 220 219 217 219 207 211 205 205 206 202 201 200 204 222 213 231 221 233 246 248 246 260 260 261 259 266 262 261 260 261 266 256 243 233
197 199 199 196 199 198 206 213 219 218 221 223 216 221 214 205 205 206 208 209 201 218 226 228 235 248 236 242 258 266 275 259 263 255 256 254 250 257 252 258 262 240 251
199 200 201 203 205 208 206 209 214 219 218 230 228 221 208 219 220 212 205 221 210 207 223 225 231 224 228 235 252 266 286 144 193 226 237 236 242 258 250 268 258 251 244
203 203 202 204 206 208 202 204 208 208 208 223 219 224 226 224 226 233 234 203 224 224 216 229 233 228 232 230 264 236 72 103 131 116 129 187 242 236 242 255 257 255 250
206 206 204 207 211 211 210 208 201 202 206 216 213 217 223 241 237 224 230 221 226 227 223 234 231 233 231 242 93 235 221 139 63 72 107 44 4 308 252 243 241 245 247
205 205 205 209 213 209 214 206 211 203 213 211 205 215 222 241 237 230 238 227 219 216 228 232 214 240 239 216 218 204 220 268 291 18 34 14 19 13 298 257 249 247 245
204 205 205 208 213 215 217 217 216 210 202 205 199 219 230 233 241 244 239 222 225 213 209 233 233 232 222 222 212 225 250 246 289 294 322 327 334 317 297 320 259 254 250
Wind_Speed_850mb
28 28 31 26 25 26 27 29 29 27 26 24 25 25 25 25 23 22 24 27 28 31 35 41 44 47 49 49 49 50 47 45 45 45 46 44 42 44 46 44 41 42 47
36 29 31 26 22 23 24 24 24 24 22 24 25 26 25 26 23 22 26 29 33 35 36 41 43 45 48 48 46 46 43 42 41 42 41 41 39 36 40 41 40 43 43
35 30 27 25 21 22 23 22 21 20 21 25 25 26 25 27 27 24 26 31 35 35 38 40 40 42 44 44 42 40 40 39 40 45 44 32 35 37 36 36 35 38 34
33 29 23 25 23 22 22 22 20 20 19 19 22 25 24 24 26 26 28 31 33 32 38 39 38 37 39 39 38 36 36 37 42 44 31 30 29 32 32 30 30 34 32
32 30 27 25 23 24 22 22 20 18 19 19 19 22 25 23 24 25 26 29 32 29 32 34 36 34 34 34 34 33 34 33 37 31 28 27 24 29 28 27 27 31 30
34 28 30 26 21 22 19 20 20 17 17 16 19 22 25 25 25 25 24 26 29 30 27 30 31 33 31 29 29 30 29 30 34 24 24 27 22 24 23 23 21 23 22
37 28 27 25 20 21 19 17 19 19 13 15 16 26 28 28 26 25 24 23 25 30 24 27 29 30 31 28 27 25 23 29 18 22 22 17 21 21 19 20 17 18 17
33 28 26 26 19 19 19 17 15 17 16 14 13 26 31 31 27 24 25 20 23 28 27 29 29 24 20 19 22 22 22 28 19 20 21 16 20 17 17 16 15 15 15
33 28 27 20 20 21 20 14 14 14 17 16 14 28 33 31 29 25 24 21 21 29 27 26 21 20 19 17 19 19 17 28 19 16 16 14 18 15 12 12 9 10 11
31 29 28 25 18 17 16 12 14 15 16 19 22 30 32 32 28 27 26 23 22 28 25 24 21 20 18 21 20 18 19 24 15 18 16 11 14 13 12 10 11 11 12
31 27 25 25 20 20 13 11 12 14 15 20 20 26 31 24 24 24 22 22 20 28 25 24 22 22 23 21 19 19 27 11 14 14 9 11 12 13 13 11 9 10 10
35 31 27 24 21 19 17 11 13 13 12 19 16 18 25 32 25 21 22 17 19 29 28 23 19 18 22 10 13 18 13 10 12 11 6 8 9 9 8 8 6 7 7
37 32 31 27 26 18 16 14 10 14 11 10 18 18 21 21 31 20 18 16 14 25 18 18 14 11 12 12 12 11 12 12 5 5 3 5 6 5 6 6 6 8 7
36 33 29 29 25 23 17 15 14 16 13 10 12 19 20 21 21 24 19 20 18 17 21 19 14 14 11 8 11 9 9 11 7 5 9 4 3 2 2 4 5 5 6
34 33 30 28 29 24 24 19 16 16 13 12 13 16 18 21 22 22 23 22 21 20 18 18 17 13 12 9 8 9 9 6 5 3 3 11 3 0 1 4 6 5 8
36 34 31 29 27 25 24 22 18 15 16 14 13 15 19 26 23 24 25 25 24 23 20 18 17 15 13 14 13 11 11 9 9 7 5 10 9 9 10 8 6 7 10
37 36 36 33 31 29 27 25 20 17 13 14 13 13 16 18 24 25 23 25 24 24 24 21 19 17 15 15 17 16 15 16 14 16 11 11 17 17 17 18 11 14 17
35 37 37 34 35 34 28 27 21 18 17 15 15 16 15 15 18 23 23 22 23 24 22 22 21 21 20 21 20 19 19 20 20 20 18 17 15 18 25 24 24 26 28
38 36 38 39 38 34 32 30 24 19 18 17 16 17 16 16 18 18 22 23 25 20 23 23 23 23 22 23 23 23 21 19 19 22 30 30 32 29 29 35 33 36 34
41 39 38 41 39 36 29 31 24 21 19 19 22 22 21 17 19 17 17 22 21 19 22 20 21 24 24 21 19 23 29 29 29 34 36 39 41 37 38 37 37 42 32
44 43 43 43 42 38 35 31 29 27 23 20 21 21 20 18 15 18 16 19 20 20 22 19 18 18 17 20 20 19 19 22 26 22 24 25 25 29 32 37 34 32 42
48 46 45 46 46 47 34 30 27 25 24 26 25 22 20 19 18 16 19 17 18 21 16 15 18 21 12 15 14 12 6 5 6 5 10 15 18 21 26 28 26 28 32
52 50 48 48 45 46 38 30 26 23 25 26 20 20 19 20 19 15 16 19 21 19 16 13 12 15 14 10 8 6 4 4 7 5 1 1 7 9 12 18 22 24 26
57 50 48 49 49 46 46 35 33 26 25 22 20 15 15 13 11 18 13 14 15 18 15 17 14 15 12 10 1 7 3 2 3 2 2 4 4 1 8 11 14 17 18
58 52 50 51 51 49 48 44 36 30 24 19 22 22 15 15 13 13 13 13 16 18 13 18 18 17 14 10 7 6 6 2 3 1 3 7 8 3 3 7 10 11 14
59 56 51 52 53 52 50 48 47 34 29 24 21 21 19 15 14 18 18 17 17 16 17 15 20 20 16 18 16 13 8 5 4 7 8 9 9 4 9 8 8 10 13
Wind_Direction_850mb
144 145 134 121 123 126 124 130 134 140 132 119 117 113 110 108 100 96 104 112 109 110 106 104 104 102 102 106 109 113 107 110 105 102 102 104 104 104 99 94 95 106 110
143 141 133 131 135 128 129 131 137 141 137 129 123 116 110 108 108 99 104 109 112 111 110 110 107 106 105 106 108 111 111 109 107 103 100 103 107 109 112 116 116 107 110
141 142 133 132 130 127 126 129 136 143 139 134 129 122 116 111 109 107 109 105 110 111 112 111 109 108 108 108 109 109 108 109 110 102 92 101 103 102 105 113 111 110 116
139 135 137 130 125 119 123 127 126 135 141 144 143 138 130 119 113 116 111 112 110 111 122 114 112 110 108 107 107 111 110 111 106 87 99 101 104 104 101 99 102 109 110
139 136 150 131 126 120 112 114 126 131 136 139 143 147 144 137 121 118 124 118 118 117 113 117 118 108 108 111 114 113 114 110 99 100 108 104 105 106 105 100 97 109 109
139 141 138 136 131 123 120 117 110 130 143 141 153 152 148 146 135 128 121 127 124 120 123 127 123 118 110 109 109 113 113 105 91 102 102 113 127 114 115 115 115 112 119
142 150 141 139 132 128 127 122 123 120 127 144 151 162 154 150 145 139 129 130 137 130 133 126 122 117 113 104 103 108 113 108 109 110 110 116 116 110 116 114 122 124 122
144 144 149 145 140 133 125 116 117 127 123 139 142 162 157 153 146 141 134 127 139 135 127 125 117 113 111 108 106 106 110 106 99 115 113 125 115 114 114 116 114 115 125
150 153 149 147 150 140 123 128 119 124 125 123 122 154 155 155 149 143 141 131 132 132 140 128 116 114 110 106 109 104 110 120 112 107 99 97 116 120 117 123 113 120 130
158 160 156 156 155 141 125 141 124 125 116 120 118 139 151 152 150 150 147 146 135 145 146 135 118 120 109 117 110 104 100 103 122 103 96 151 133 127 113 129 121 127 137
165 166 166 159 165 158 147 152 128 125 127 117 118 133 131 146 144 137 161 156 149 160 161 149 131 120 106 115 106 103 88 112 97 110 118 123 119 113 119 133 136 126 117
170 172 172 169 172 166 156 166 157 143 122 123 141 134 140 150 161 158 159 160 161 164 168 160 144 123 94 100 85 76 99 117 96 103 170 111 111 123 134 134 131 136 145
175 178 177 178 179 170 169 167 171 152 146 148 150 142 159 163 159 154 155 150 158 161 162 163 153 122 154 133 130 134 137 110 112 96 157 82 118 144 161 153 178 184 188
180 183 180 186 183 176 179 167 179 167 158 165 159 161 168 155 164 171 169 170 170 172 184 179 190 190 168 155 152 158 136 137 144 151 275 16 84 159 195 195 214 220 228
185 186 188 192 189 183 180 176 175 167 163 169 172 176 177 175 177 177 181 179 179 187 192 192 195 197 209 194 201 184 173 178 187 176 254 274 244 250 251 248 240 252 256
187 189 190 191 197 190 182 181 183 179 175 176 181 200 185 179 185 189 188 189 191 192 192 198 207 212 216 221 232 234 230 232 257 245 242 279 275 270 250 234 216 205 249
192 193 191 190 195 187 185 181 186 187 186 186 190 202 197 197 195 187 193 195 198 203 202 206 214 221 223 235 242 241 246 253 251 259 262 243 278 275 264 240 225 224 245
190 194 191 191 191 188 190 189 193 196 197 204 210 211 214 206 204 195 192 200 209 203 212 216 220 228 234 239 244 243 254 251 255 255 256 246 250 250 269 244 214 240 240
191 193 192 192 191 195 196 198 201 208 212 217 212 213 216 210 209 201 196 197 205 202 211 220 227 224 233 237 241 252 245 251 256 251 259 261 262 255 257 259 249 231 237
197 195 191 196 194 198 204 210 214 220 219 217 219 207 211 205 205 206 202 201 200 204 222 213 231 221 233 246 248 246 260 260 261 259 266 262 261 260 261 266 256 243 233
197 199 199 196 199 198 206 213 219 218 221 223 216 221 214 205 205 206 208 209 201 218 226 228 235 248 236 242 258 266 275 259 263 255 256 254 250 257 252 258 262 240 251
199 200 201 203 205 208 206 209 214 219 218 230 228 221 208 219 220 212 205 221 210 207 223 225 231 224 228 235 252 266 286 144 193 226 237 236 242 258 250 268 258 251 244
203 203 202 204 206 208 202 204 208 208 208 223 219 224 226 224 226 233 234 203 224 224 216 229 233 228 232 230 264 236 72 103 131 116 129 187 242 236 242 255 257 255 250
206 206 204 207 211 211 210 208 201 202 206 216 213 217 223 241 237 224 230 221 226 227 223 234 231 233 231 242 93 235 221 139 63 72 107 44 4 308 252 243 241 245 247
205 205 205 209 213 209 214 206 211 203 213 211 205 215 222 241 237 230 238 227 219 216 228 232 214 240 239 216 218 204 220 268 291 18 34 14 19 13 298 257 249 247 245
204 205 205 208 213 215 217 217 216 210 202 205 199 219 230 233 241 244 239 222 225 213 209 233 233 232 222 222 212 225 250 246 289 294 322 327 334 317 297 320 259 254 250